Index of /20260430/WXO-DD/model_gdps/15km/00/207
Name Last modified Size Description
Parent Directory -
20260430T00Z_MSC_GDPS_AirTemp_AGL-120m_LatLon0.15_PT207H.grib2 2026-04-30 04:36 905K
20260430T00Z_MSC_GDPS_AirTemp_AGL-2m_LatLon0.15_PT207H.grib2 2026-04-30 04:36 1.0M
20260430T00Z_MSC_GDPS_AirTemp_AGL-40m_LatLon0.15_PT207H.grib2 2026-04-30 04:36 807K
20260430T00Z_MSC_GDPS_AirTemp_AGL-80m_LatLon0.15_PT207H.grib2 2026-04-30 04:36 797K
20260430T00Z_MSC_GDPS_AirTemp_IsbL-0001_LatLon0.15_PT207H.grib2 2026-04-30 04:36 661K
20260430T00Z_MSC_GDPS_AirTemp_IsbL-0005_LatLon0.15_PT207H.grib2 2026-04-30 04:36 694K
20260430T00Z_MSC_GDPS_AirTemp_IsbL-0500_LatLon0.15_PT207H.grib2 2026-04-30 04:36 1.0M
20260430T00Z_MSC_GDPS_AirTemp_IsbL-0700_LatLon0.15_PT207H.grib2 2026-04-30 04:36 959K
20260430T00Z_MSC_GDPS_AirTemp_IsbL-0850_LatLon0.15_PT207H.grib2 2026-04-30 04:36 1.1M
20260430T00Z_MSC_GDPS_AirTemp_IsbL-0925_LatLon0.15_PT207H.grib2 2026-04-30 04:36 1.1M
20260430T00Z_MSC_GDPS_AirTemp_IsbL-1000_LatLon0.15_PT207H.grib2 2026-04-30 04:36 1.1M
20260430T00Z_MSC_GDPS_Albedo_Sfc_LatLon0.15_PT207H.grib2 2026-04-30 04:36 243K
20260430T00Z_MSC_GDPS_ConvectivePrecip-Accum_Sfc_LatLon0.15_PT207H.grib2 2026-04-30 04:36 3.7M
20260430T00Z_MSC_GDPS_DewPointDepression_AGL-2m_LatLon0.15_PT207H.grib2 2026-04-30 04:36 766K
20260430T00Z_MSC_GDPS_DewPointDepression_IsbL-0500_LatLon0.15_PT207H.grib2 2026-04-30 04:36 1.0M
20260430T00Z_MSC_GDPS_DewPointDepression_IsbL-0700_LatLon0.15_PT207H.grib2 2026-04-30 04:36 1.1M
20260430T00Z_MSC_GDPS_DewPointDepression_IsbL-0850_LatLon0.15_PT207H.grib2 2026-04-30 04:36 1.2M
20260430T00Z_MSC_GDPS_DewPointDepression_IsbL-0925_LatLon0.15_PT207H.grib2 2026-04-30 04:36 1.0M
20260430T00Z_MSC_GDPS_DewPointDepression_IsbL-1000_LatLon0.15_PT207H.grib2 2026-04-30 04:36 968K
20260430T00Z_MSC_GDPS_DewPoint_AGL-2m_LatLon0.15_PT207H.grib2 2026-04-30 04:36 612K
20260430T00Z_MSC_GDPS_DownwardLongwaveRadiationFlux-Accum_Sfc_LatLon0.15_PT207H.grib2 2026-04-30 04:36 716K
20260430T00Z_MSC_GDPS_DownwardShortwaveRadiationFlux-Accum_Sfc_LatLon0.15_PT207H.grib2 2026-04-30 04:36 887K
20260430T00Z_MSC_GDPS_FreezingRain-Accum_Sfc_LatLon0.15_PT207H.grib2 2026-04-30 04:36 395K
20260430T00Z_MSC_GDPS_GeopotentialHeight_IsbL-0001_LatLon0.15_PT207H.grib2 2026-04-30 04:36 443K
20260430T00Z_MSC_GDPS_GeopotentialHeight_IsbL-0005_LatLon0.15_PT207H.grib2 2026-04-30 04:36 488K
20260430T00Z_MSC_GDPS_GeopotentialHeight_IsbL-0500_LatLon0.15_PT207H.grib2 2026-04-30 04:36 533K
20260430T00Z_MSC_GDPS_GeopotentialHeight_IsbL-0700_LatLon0.15_PT207H.grib2 2026-04-30 04:36 691K
20260430T00Z_MSC_GDPS_GeopotentialHeight_IsbL-0850_LatLon0.15_PT207H.grib2 2026-04-30 04:36 715K
20260430T00Z_MSC_GDPS_GeopotentialHeight_IsbL-0925_LatLon0.15_PT207H.grib2 2026-04-30 04:36 736K
20260430T00Z_MSC_GDPS_GeopotentialHeight_IsbL-1000_LatLon0.15_PT207H.grib2 2026-04-30 04:36 789K
20260430T00Z_MSC_GDPS_IcePellets-Accum_Sfc_LatLon0.15_PT207H.grib2 2026-04-30 04:36 130K
20260430T00Z_MSC_GDPS_LatentHeatNetFlux_Sfc_LatLon0.15_PT207H.grib2 2026-04-30 04:36 723K
20260430T00Z_MSC_GDPS_NetLongwaveRadiationFlux-Accum_Sfc_LatLon0.15_PT207H.grib2 2026-04-30 04:36 908K
20260430T00Z_MSC_GDPS_NetShortwaveRadiationFlux-Accum_Sfc_LatLon0.15_PT207H.grib2 2026-04-30 04:36 866K
20260430T00Z_MSC_GDPS_O3MixingRatio_Sfc_LatLon0.15_PT207H.grib2 2026-04-30 04:52 2.2M
20260430T00Z_MSC_GDPS_O3_EAtm_LatLon0.15_PT207H.grib2 2026-04-30 04:52 2.4M
20260430T00Z_MSC_GDPS_PlanetaryBoundaryLayerHeight_Sfc_LatLon0.15_PT207H.grib2 2026-04-30 04:36 2.5M
20260430T00Z_MSC_GDPS_Precip-Accum_Sfc_LatLon0.15_PT207H.grib2 2026-04-30 04:36 5.1M
20260430T00Z_MSC_GDPS_PrecipRate_Sfc_LatLon0.15_PT207H.grib2 2026-04-30 04:36 3.1M
20260430T00Z_MSC_GDPS_Pressure_MSL_LatLon0.15_PT207H.grib2 2026-04-30 04:36 727K
20260430T00Z_MSC_GDPS_Pressure_Sfc_LatLon0.15_PT207H.grib2 2026-04-30 04:36 1.1M
20260430T00Z_MSC_GDPS_RadiativeTemp_Sfc_LatLon0.15_PT207H.grib2 2026-04-30 04:36 496K
20260430T00Z_MSC_GDPS_Rain-Accum_Sfc_LatLon0.15_PT207H.grib2 2026-04-30 04:36 4.0M
20260430T00Z_MSC_GDPS_RelativeHumidity_AGL-2m_LatLon0.15_PT207H.grib2 2026-04-30 04:36 1.0M
20260430T00Z_MSC_GDPS_Runoff-Accum_Sfc_LatLon0.15_PT207H.grib2 2026-04-30 04:36 132K
20260430T00Z_MSC_GDPS_SensibleHeatNetFlux_Sfc_LatLon0.15_PT207H.grib2 2026-04-30 04:36 650K
20260430T00Z_MSC_GDPS_Snow-Accum_Sfc_LatLon0.15_PT207H.grib2 2026-04-30 04:36 2.1M
20260430T00Z_MSC_GDPS_SnowDepth_Sfc_LatLon0.15_PT207H.grib2 2026-04-30 04:36 1.7M
20260430T00Z_MSC_GDPS_SoilTemp_DBS-0to10cm_LatLon0.15_PT207H.grib2 2026-04-30 04:36 516K
20260430T00Z_MSC_GDPS_SoilTemp_Sfc_LatLon0.15_PT207H.grib2 2026-04-30 04:36 587K
20260430T00Z_MSC_GDPS_SoilVolumetricWaterContent_DBS-0to10cm_LatLon0.15_PT207H.grib2 2026-04-30 04:36 595K
20260430T00Z_MSC_GDPS_SoilVolumetricWaterContent_DBS-0to1cm_LatLon0.15_PT207H.grib2 2026-04-30 04:36 648K
20260430T00Z_MSC_GDPS_SpecificHumidity_AGL-120m_LatLon0.15_PT207H.grib2 2026-04-30 04:36 1.1M
20260430T00Z_MSC_GDPS_SpecificHumidity_AGL-2m_LatLon0.15_PT207H.grib2 2026-04-30 04:36 1.2M
20260430T00Z_MSC_GDPS_SpecificHumidity_AGL-40m_LatLon0.15_PT207H.grib2 2026-04-30 04:36 1.1M
20260430T00Z_MSC_GDPS_SpecificHumidity_AGL-80m_LatLon0.15_PT207H.grib2 2026-04-30 04:36 1.1M
20260430T00Z_MSC_GDPS_SpecificHumidity_IsbL-0001_LatLon0.15_PT207H.grib2 2026-04-30 04:36 1.1M
20260430T00Z_MSC_GDPS_SpecificHumidity_IsbL-0005_LatLon0.15_PT207H.grib2 2026-04-30 04:36 1.0M
20260430T00Z_MSC_GDPS_SpecificHumidity_IsbL-0500_LatLon0.15_PT207H.grib2 2026-04-30 04:36 1.5M
20260430T00Z_MSC_GDPS_SpecificHumidity_IsbL-0700_LatLon0.15_PT207H.grib2 2026-04-30 04:36 1.6M
20260430T00Z_MSC_GDPS_SpecificHumidity_IsbL-0850_LatLon0.15_PT207H.grib2 2026-04-30 04:36 2.0M
20260430T00Z_MSC_GDPS_SpecificHumidity_IsbL-0925_LatLon0.15_PT207H.grib2 2026-04-30 04:36 1.6M
20260430T00Z_MSC_GDPS_SpecificHumidity_IsbL-1000_LatLon0.15_PT207H.grib2 2026-04-30 04:36 1.5M
20260430T00Z_MSC_GDPS_SpecificHumidity_Sfc_LatLon0.15_PT207H.grib2 2026-04-30 04:36 685K
20260430T00Z_MSC_GDPS_Thickness_IsbL-0850to0700_LatLon0.15_PT207H.grib2 2026-04-30 04:36 472K
20260430T00Z_MSC_GDPS_Thickness_IsbL-1000to0500_LatLon0.15_PT207H.grib2 2026-04-30 04:36 373K
20260430T00Z_MSC_GDPS_Thickness_IsbL-1000to0850_LatLon0.15_PT207H.grib2 2026-04-30 04:36 490K
20260430T00Z_MSC_GDPS_TotalCloudCover_Sfc_LatLon0.15_PT207H.grib2 2026-04-30 04:36 828K
20260430T00Z_MSC_GDPS_UVIndex-ClearSky_Sfc_LatLon0.15_PT207H.grib2 2026-04-30 04:52 1.0M
20260430T00Z_MSC_GDPS_UVIndex_Sfc_LatLon0.15_PT207H.grib2 2026-04-30 04:52 1.5M
20260430T00Z_MSC_GDPS_UpwardLongwaveRadiationFlux_NTAtm_LatLon0.15_PT207H.grib2 2026-04-30 04:36 845K
20260430T00Z_MSC_GDPS_VerticalVelocity_IsbL-0500_LatLon0.15_PT207H.grib2 2026-04-30 04:36 1.3M
20260430T00Z_MSC_GDPS_VerticalVelocity_IsbL-0700_LatLon0.15_PT207H.grib2 2026-04-30 04:36 1.4M
20260430T00Z_MSC_GDPS_VerticalVelocity_IsbL-0850_LatLon0.15_PT207H.grib2 2026-04-30 04:36 1.3M
20260430T00Z_MSC_GDPS_WindDir_AGL-10m_LatLon0.15_PT207H.grib2 2026-04-30 04:36 1.3M
20260430T00Z_MSC_GDPS_WindDir_AGL-120m_LatLon0.15_PT207H.grib2 2026-04-30 04:36 1.3M
20260430T00Z_MSC_GDPS_WindDir_AGL-40m_LatLon0.15_PT207H.grib2 2026-04-30 04:36 1.4M
20260430T00Z_MSC_GDPS_WindDir_AGL-80m_LatLon0.15_PT207H.grib2 2026-04-30 04:36 1.3M
20260430T00Z_MSC_GDPS_WindDir_IsbL-0001_LatLon0.15_PT207H.grib2 2026-04-30 04:36 654K
20260430T00Z_MSC_GDPS_WindDir_IsbL-0005_LatLon0.15_PT207H.grib2 2026-04-30 04:36 809K
20260430T00Z_MSC_GDPS_WindDir_IsbL-0500_LatLon0.15_PT207H.grib2 2026-04-30 04:36 1.3M
20260430T00Z_MSC_GDPS_WindDir_IsbL-0700_LatLon0.15_PT207H.grib2 2026-04-30 04:36 1.6M
20260430T00Z_MSC_GDPS_WindDir_IsbL-0850_LatLon0.15_PT207H.grib2 2026-04-30 04:36 1.9M
20260430T00Z_MSC_GDPS_WindDir_IsbL-0925_LatLon0.15_PT207H.grib2 2026-04-30 04:36 1.9M
20260430T00Z_MSC_GDPS_WindDir_IsbL-1000_LatLon0.15_PT207H.grib2 2026-04-30 04:36 2.0M
20260430T00Z_MSC_GDPS_WindGust-Max_AGL-10m_LatLon0.15_PT207H.grib2 2026-04-30 04:36 2.2M
20260430T00Z_MSC_GDPS_WindGust-Min_AGL-10m_LatLon0.15_PT207H.grib2 2026-04-30 04:36 2.1M
20260430T00Z_MSC_GDPS_WindGust_AGL-10m_LatLon0.15_PT207H.grib2 2026-04-30 04:36 2.1M
20260430T00Z_MSC_GDPS_WindSpeed_AGL-10m_LatLon0.15_PT207H.grib2 2026-04-30 04:36 1.1M
20260430T00Z_MSC_GDPS_WindSpeed_AGL-120m_LatLon0.15_PT207H.grib2 2026-04-30 04:36 1.2M
20260430T00Z_MSC_GDPS_WindSpeed_AGL-40m_LatLon0.15_PT207H.grib2 2026-04-30 04:36 1.2M
20260430T00Z_MSC_GDPS_WindSpeed_AGL-80m_LatLon0.15_PT207H.grib2 2026-04-30 04:36 1.2M
20260430T00Z_MSC_GDPS_WindSpeed_IsbL-0001_LatLon0.15_PT207H.grib2 2026-04-30 04:36 647K
20260430T00Z_MSC_GDPS_WindSpeed_IsbL-0005_LatLon0.15_PT207H.grib2 2026-04-30 04:36 688K
20260430T00Z_MSC_GDPS_WindSpeed_IsbL-0500_LatLon0.15_PT207H.grib2 2026-04-30 04:36 1.1M
20260430T00Z_MSC_GDPS_WindSpeed_IsbL-0700_LatLon0.15_PT207H.grib2 2026-04-30 04:36 1.5M
20260430T00Z_MSC_GDPS_WindSpeed_IsbL-0850_LatLon0.15_PT207H.grib2 2026-04-30 04:36 1.7M
20260430T00Z_MSC_GDPS_WindSpeed_IsbL-0925_LatLon0.15_PT207H.grib2 2026-04-30 04:36 1.8M
20260430T00Z_MSC_GDPS_WindSpeed_IsbL-1000_LatLon0.15_PT207H.grib2 2026-04-30 04:36 1.9M
20260430T00Z_MSC_GDPS_WindU_AGL-10m_LatLon0.15_PT207H.grib2 2026-04-30 04:36 1.3M
20260430T00Z_MSC_GDPS_WindU_AGL-120m_LatLon0.15_PT207H.grib2 2026-04-30 04:36 962K
20260430T00Z_MSC_GDPS_WindU_AGL-40m_LatLon0.15_PT207H.grib2 2026-04-30 04:36 958K
20260430T00Z_MSC_GDPS_WindU_AGL-80m_LatLon0.15_PT207H.grib2 2026-04-30 04:36 963K
20260430T00Z_MSC_GDPS_WindU_IsbL-0001_LatLon0.15_PT207H.grib2 2026-04-30 04:36 500K
20260430T00Z_MSC_GDPS_WindU_IsbL-0005_LatLon0.15_PT207H.grib2 2026-04-30 04:36 687K
20260430T00Z_MSC_GDPS_WindU_IsbL-0500_LatLon0.15_PT207H.grib2 2026-04-30 04:36 1.1M
20260430T00Z_MSC_GDPS_WindU_IsbL-0700_LatLon0.15_PT207H.grib2 2026-04-30 04:36 1.2M
20260430T00Z_MSC_GDPS_WindU_IsbL-0850_LatLon0.15_PT207H.grib2 2026-04-30 04:36 1.4M
20260430T00Z_MSC_GDPS_WindU_IsbL-0925_LatLon0.15_PT207H.grib2 2026-04-30 04:36 1.5M
20260430T00Z_MSC_GDPS_WindU_IsbL-1000_LatLon0.15_PT207H.grib2 2026-04-30 04:36 1.4M
20260430T00Z_MSC_GDPS_WindV_AGL-10m_LatLon0.15_PT207H.grib2 2026-04-30 04:36 1.3M
20260430T00Z_MSC_GDPS_WindV_AGL-120m_LatLon0.15_PT207H.grib2 2026-04-30 04:36 1.0M
20260430T00Z_MSC_GDPS_WindV_AGL-40m_LatLon0.15_PT207H.grib2 2026-04-30 04:36 958K
20260430T00Z_MSC_GDPS_WindV_AGL-80m_LatLon0.15_PT207H.grib2 2026-04-30 04:36 1.0M
20260430T00Z_MSC_GDPS_WindV_IsbL-0001_LatLon0.15_PT207H.grib2 2026-04-30 04:36 784K
20260430T00Z_MSC_GDPS_WindV_IsbL-0005_LatLon0.15_PT207H.grib2 2026-04-30 04:36 781K
20260430T00Z_MSC_GDPS_WindV_IsbL-0500_LatLon0.15_PT207H.grib2 2026-04-30 04:36 1.1M
20260430T00Z_MSC_GDPS_WindV_IsbL-0700_LatLon0.15_PT207H.grib2 2026-04-30 04:36 1.2M
20260430T00Z_MSC_GDPS_WindV_IsbL-0850_LatLon0.15_PT207H.grib2 2026-04-30 04:36 1.4M
20260430T00Z_MSC_GDPS_WindV_IsbL-0925_LatLon0.15_PT207H.grib2 2026-04-30 04:36 1.4M
20260430T00Z_MSC_GDPS_WindV_IsbL-1000_LatLon0.15_PT207H.grib2 2026-04-30 04:36 1.4M